043  
ASUS46 KOTX 271125  
RWROTX  
 
EASTERN WASHINGTON/NORTHERN IDAHO ROUNDUP  
NATIONAL WEATHER SERVICE, SPOKANE WA  
300 AM PST THU FEB 27 2020  
 
NOTE: "FAIR" INDICATED FEW OR NO CLOUDS BELOW 12,000 FEET WITH NO  
SIGNIFICANT WEATHER AND/OR S TO VISIBILITY
.  
   
..NORTHEAST WASHINGTON AND NORTHERN IDAHO PANHANDLE
 
 
 
CITY SKY/WX TMP DP RH WIND PRES REMARKS
 
SPOKANE INTL MOCLDY 34 27 75 S9 30.36F WCI 27  
SPOKANE DOWNTO MOCLDY 33 28 81 NE5 30.38F WCI 29  
COEUR D ALENE PTCLDY 29 27 92 NE6 30.37F WCI 23  
DEER PARK PTCLDY 26 23 88 NW5 30.37F WCI 20  
SANDPOINT CLOUDY 28 28 100 CALM 30.38S  
BONNERS FERRY FAIR 28 27 93 CALM 30.36S  
   
..SOUTHEAST WASHINGTON AND SOUTHERN IDAHO PANHANDLE
 
 
 
CITY SKY/WX TMP DP RH WIND PRES REMARKS
 
WALLA WALLA CLEAR 36 29 75 E8 30.40F  
PULLMAN/MOSCOW PTCLDY 33 29 85 NE6 30.40F WCI 28  
LEWISTON CLEAR 32 28 85 SE7 30.43S WCI 26  
LOWELL N/A 36 33 89 N3 30.48F  
GRANGEVILLE FAIR 27 27 100 CALM 30.38S  
   
..COLUMBIA BASIN
 
 
 
CITY SKY/WX TMP DP RH WIND PRES REMARKS
 
EPHRATA CLOUDY 34 29 82 NE7 30.38S WCI 28  
MOSES LAKE MOCLDY 35 29 78 N3 30.39S  
PASCO CLEAR 28 24 85 N5 30.42F WCI 23  
RICHLAND SUNNY 31 30 96 CALM 30.42F  
HERMISTON CLEAR 32 27 81 S3 30.42S  
PENDLETON CLEAR 34 28 79 SE8 30.41S WCI 27  
   
..EAST SLOPES CASCADES
 
 
 
CITY SKY/WX TMP DP RH WIND PRES REMARKS
 
THE DALLES CLEAR 36 30 79 CALM 30.44F  
YAKIMA CLEAR 29 24 82 W8 30.41F WCI 21  
ELLENSBURG CLEAR 40 28 62 W7 30.39S  
STAMPEDE PASS CLOUDY 32 29 88 CALM 30.37F  
WENATCHEE PTCLDY 40 27 59 W7 30.38F  
OMAK MOCLDY 34 26 72 CALM 30.37F  
SUNNYSIDE SUNNY 29 27 92 CALM 30.42S  
   
..SOUTHERN BRITISH COLUMBIA
 
 
 
CITY SKY/WX TMP DP RH WIND PRES REMARKS
 
PENTICTON MOCLDY 39 30 70 VRB2 30.36F  
CRANBROOK MOCLDY 27 23 86 VRB3 30.28F  
OSOYOOS N/A 36 30 80 E1 N/A  
CRESTON N/A 28 27 93 CALM N/A  
   
..WESTERN MONTANA
 
 
 
CITY SKY/WX TMP DP RH WIND PRES REMARKS
 
KALISPELL FOG 23 21 92 CALM 30.33S VSB 1/2  
LIBBY N/A 21 21 100 CALM 30.34S  
MISSOULA PTCLDY 34 23 64 N5 30.35F WCI 30  
   
..NEIGHBORING CITIES
 
 
 
CITY SKY/WX TMP DP RH WIND PRES REMARKS
 
SEATTLE MOCLDY 42 36 79 SE6 30.47F  
PORTLAND PTCLDY 37 34 89 CALM 30.50S  
BOISE CLEAR 30 22 72 S3 30.41F  
GREAT FALLS CLEAR 28 17 63 SW14 30.19S WCI 17  
CALGARY PTCLDY 36 14 41 W12G18 30.04F  
 
CLICK HERE TO GO TO PREVIOUS BULLETINS.

The Nexlab WA Page
The Nexlab ID Page Main Text Page